GW5815 Weather Reports


Display with metric or nautical units.
time (UTC)temp
F
wind
direction
speed
MPH
gust
MPH
rain 1hr
in
rain 24hr
in
rain mn
in
humidity
%
barometer
mb
20260507105527 47 257 0.0 1.0 0.07 0.29 0.25 95 1008.0
20260507105027 47 0 0.0 1.0 0.07 0.29 0.25 96 1007.9
20260507104544 47 0 0.0 1.0 0.08 0.29 0.25 96 1007.9
20260507104028 47 0 0.0 1.0 0.08 0.29 0.25 95 1007.6
20260507103527 47 257 0.0 1.0 0.07 0.28 0.24 95 1007.8
20260507103041 47 0 0.0 1.0 0.07 0.28 0.24 95 1007.6
20260507102528 47 0 0.0 1.0 0.08 0.28 0.24 95 1007.8
20260507102028 47 265 0.0 1.0 0.07 0.27 0.23 95 1007.6
20260507101537 47 0 0.0 0.0 0.05 0.25 0.21 95 1007.9
20260507101026 47 0 0.0 0.0 0.03 0.23 0.19 95 1008.0
20260507100527 47 0 0.0 1.0 0.02 0.22 0.18 95 1008.0
20260507100039 48 0 0.0 1.0 0.02 0.22 0.18 95 1007.7
20260507095528 48 0 0.0 1.0 0.02 0.22 0.18 95 1007.8
20260507095028 48 0 0.0 1.0 0.02 0.22 0.18 95 1007.7
20260507094551 48 0 0.0 2.0 0.01 0.21 0.17 95 1007.7
20260507094028 48 0 0.0 2.0 0.02 0.21 0.17 95 1007.6
20260507093531 48 264 0.0 2.0 0.02 0.21 0.17 95 1007.6
20260507093043 48 0 0.0 1.0 0.03 0.21 0.17 95 1007.2
20260507092527 48 0 0.0 1.0 0.02 0.20 0.16 95 1007.4
20260507092030 48 0 0.0 1.0 0.02 0.20 0.16 95 1007.5
20260507091542 48 0 0.0 1.0 0.02 0.20 0.16 95 1007.4
20260507091028 48 113 0.0 1.0 0.03 0.20 0.16 95 1007.3
20260507090528 48 0 0.0 1.0 0.03 0.20 0.16 94 1007.4
20260507090040 48 0 0.0 1.0 0.03 0.20 0.16 94 1007.3
20260507085528 48 290 0.0 1.0 0.04 0.20 0.16 94 1007.4
20260507085028 48 0 0.0 2.0 0.05 0.20 0.16 94 1007.4
20260507084537 48 0 0.0 2.0 0.06 0.20 0.16 94 1007.0
20260507084027 48 313 0.0 1.0 0.05 0.19 0.15 94 1007.2
20260507083529 49 310 0.0 1.0 0.06 0.19 0.15 94 1007.5
20260507083043 49 310 0.0 1.0 0.08 0.18 0.14 94 1007.4
20260507082528 49 0 0.0 1.0 0.10 0.18 0.14 93 1007.3
20260507082027 49 0 0.0 1.0 0.13 0.18 0.14 93 1007.3
20260507081546 49 248 0.0 2.0 0.14 0.18 0.14 93 1007.4
20260507081027 49 0 0.0 2.0 0.13 0.17 0.13 93 1007.3
20260507080530 49 0 0.0 1.0 0.13 0.17 0.13 93 1007.2
20260507080040 49 0 0.0 1.0 0.12 0.16 0.12 92 1007.2
20260507075529 50 0 0.0 1.0 0.12 0.16 0.12 92 1007.7
20260507075027 50 270 0.0 1.0 0.11 0.15 0.11 92 1007.8
20260507074539 50 272 0.0 2.0 0.10 0.14 0.10 91 1007.6
20260507074031 51 272 0.0 3.0 0.10 0.14 0.10 90 1007.8
20260507073529 51 0 0.0 4.0 0.09 0.13 0.09 89 1007.3
20260507073037 52 0 0.0 4.0 0.05 0.09 0.05 88 1007.7
20260507072528 53 251 0.0 4.0 0.03 0.07 0.03 86 1007.5
20260507072027 53 266 0.0 4.0 0.01 0.05 0.01 84 1007.0
20260507071537 53 276 1.0 4.0 0.00 0.04 0.00 83 1006.6
20260507071027 53 278 0.0 4.0 0.00 0.04 0.00 82 1006.3
20260507070527 53 285 0.0 2.0 0.00 0.04 0.00 83 1006.3
20260507070040 54 257 0.0 3.0 0.00 0.04 0.00 83 1006.2
20260507065527 54 291 1.0 3.0 0.00 0.04 0.00 83 1006.3
20260507065027 54 286 1.0 4.0 0.00 0.04 0.00 83 1006.4
20260507064552 54 214 1.0 4.0 0.00 0.04 0.00 83 1006.3
20260507064027 55 265 0.0 2.0 0.00 0.04 0.00 85 1006.4
20260507063526 55 264 1.0 2.0 0.00 0.04 0.00 87 1006.6
20260507063045 55 0 0.0 3.0 0.00 0.04 0.00 90 1006.5
20260507062531 55 0 0.0 3.0 0.00 0.04 0.00 90 1006.5
20260507062028 56 279 0.0 3.0 0.00 0.04 0.00 90 1006.4
20260507061540 56 0 0.0 1.0 0.00 0.04 0.00 90 1006.3
20260507061027 56 314 0.0 3.0 0.00 0.04 0.00 90 1006.3
20260507060527 56 0 1.0 4.0 0.00 0.04 0.00 89 1006.5
20260507060045 56 290 1.0 4.0 0.00 0.04 0.00 90 1006.6
20260507055528 56 283 1.0 3.0 0.00 0.04 0.00 90 1006.6
20260507055027 56 319 0.0 2.0 0.00 0.04 0.00 91 1006.6
20260507054536 56 289 1.0 2.0 0.00 0.04 0.00 91 1006.8
20260507054032 57 251 0.0 2.0 0.00 0.04 0.00 91 1006.7
20260507053527 57 251 0.0 3.0 0.00 0.04 0.00 91 1006.8
20260507053041 57 252 0.0 3.0 0.00 0.04 0.00 91 1006.9
20260507052527 57 0 0.0 3.0 0.00 0.04 0.00 91 1006.9
20260507052031 57 238 1.0 3.0 0.00 0.04 0.00 91 1007.0
20260507051537 57 231 1.0 3.0 0.00 0.04 0.00 91 1006.8
20260507051030 57 246 1.0 3.0 0.00 0.04 0.00 91 1006.9
20260507050528 57 266 0.0 2.0 0.00 0.04 0.00 91 1006.9
20260507050047 57 0 1.0 5.0 0.00 0.04 0.00 91 1006.8
20260507045528 58 281 0.0 5.0 0.00 0.04 0.00 91 1007.0
20260507045028 58 233 1.0 5.0 0.00 0.04 0.00 91 1006.9
20260507044543 58 0 0.0 2.0 0.00 0.04 0.00 91 1007.1
20260507044029 58 262 0.0 2.0 0.00 0.04 0.00 92 1007.0
20260507043527 58 0 0.0 1.0 0.00 0.04 0.00 92 1007.0
20260507043035 58 0 0.0 0.0 0.00 0.04 0.00 92 1006.9
20260507042527 58 0 0.0 1.0 0.00 0.04 0.00 92 1006.8
20260507042027 58 0 0.0 1.0 0.00 0.04 0.00 93 1006.9
20260507041547 58 0 0.0 1.0 0.00 0.04 0.00 93 1007.0
20260507041027 58 0 0.0 3.0 0.00 0.04 0.00 93 1006.6
20260507040527 58 0 0.0 3.0 0.00 0.04 0.00 93 1006.9
20260507040040 58 304 1.0 3.0 0.00 0.04 0.00 93 1006.9
20260507035529 58 271 0.0 4.0 0.00 0.04 0.04 93 1006.9
20260507035027 58 259 1.0 6.0 0.00 0.04 0.04 93 1006.9
20260507034543 58 257 0.0 6.0 0.00 0.04 0.04 93 1006.9
20260507034029 58 236 1.0 5.0 0.00 0.04 0.04 93 1006.7
20260507033529 58 231 1.0 4.0 0.00 0.04 0.04 93 1006.8
20260507033049 58 139 2.0 4.0 0.00 0.04 0.04 93 1006.9
20260507032528 58 251 0.0 4.0 0.00 0.04 0.04 94 1007.2
20260507032027 58 213 2.0 4.0 0.00 0.04 0.04 94 1007.1
20260507031543 58 217 1.0 3.0 0.00 0.04 0.04 94 1006.9
20260507031027 58 211 0.0 3.0 0.00 0.04 0.04 94 1006.7
20260507030528 58 186 1.0 7.0 0.00 0.04 0.04 94 1006.8
20260507030043 58 233 1.0 7.0 0.00 0.04 0.04 94 1006.9
20260507025528 58 200 1.0 5.0 0.00 0.04 0.04 94 1006.7
20260507025027 58 165 2.0 5.0 0.00 0.04 0.04 94 1006.7
20260507024552 57 197 2.0 8.0 0.00 0.04 0.04 94 1006.7
20260507024027 57 235 2.0 8.0 0.00 0.04 0.04 94 1006.8
20260507023527 57 169 2.0 5.0 0.00 0.04 0.04 94 1006.6
20260507023044 57 181 2.0 5.0 0.00 0.04 0.04 94 1006.7
20260507022527 57 177 3.0 4.0 0.00 0.04 0.04 94 1006.7
20260507022030 57 203 2.0 4.0 0.00 0.04 0.04 94 1006.7
20260507021536 57 196 1.0 4.0 0.00 0.04 0.04 94 1006.8
20260507021028 57 197 1.0 5.0 0.00 0.04 0.04 94 1006.8
20260507020528 57 227 1.0 6.0 0.00 0.04 0.04 94 1006.8
20260507020037 57 235 3.0 6.0 0.00 0.04 0.04 95 1006.7
20260507015527 57 167 2.0 6.0 0.00 0.04 0.04 94 1006.6
20260507015027 57 126 2.0 6.0 0.00 0.04 0.04 95 1006.8
20260507014540 57 179 2.0 6.0 0.00 0.04 0.04 95 1006.7
20260507014027 57 195 2.0 6.0 0.00 0.04 0.04 95 1006.8
20260507013528 57 181 1.0 4.0 0.00 0.04 0.04 95 1006.8
20260507013039 57 166 1.0 4.0 0.00 0.04 0.04 95 1006.7
20260507012530 57 205 0.0 6.0 0.00 0.04 0.04 95 1006.8
20260507012030 57 168 2.0 6.0 0.00 0.04 0.04 95 1007.0
20260507011538 57 198 2.0 6.0 0.00 0.04 0.04 95 1007.1
20260507011027 57 169 3.0 6.0 0.00 0.04 0.04 95 1007.0
20260507010530 56 176 2.0 5.0 0.00 0.04 0.04 95 1007.1
20260507010043 56 160 2.0 6.0 0.00 0.04 0.04 95 1007.0
20260507005528 56 167 2.0 6.0 0.00 0.04 0.04 95 1007.1
20260507005029 56 176 1.0 6.0 0.00 0.04 0.04 95 1007.1
20260507004542 56 203 2.0 7.0 0.00 0.04 0.04 95 1007.1
20260507004027 56 202 2.0 7.0 0.00 0.04 0.04 95 1007.1
20260507003530 56 150 2.0 7.0 0.00 0.04 0.04 95 1007.1
20260507003043 56 169 2.0 7.0 0.00 0.04 0.04 95 1007.0
20260507002528 56 121 2.0 7.0 0.00 0.04 0.04 94 1007.0
20260507002030 56 155 4.0 7.0 0.00 0.04 0.04 94 1006.9
20260507001605 56 177 3.0 5.0 0.00 0.04 0.04 94 1006.8
20260507001027 56 159 3.0 5.0 0.00 0.04 0.04 94 1006.9
20260507000529 56 159 2.0 6.0 0.00 0.04 0.04 94 1006.9
20260507000035 56 163 3.0 6.0 0.00 0.04 0.04 94 1006.9
20260506235528 56 136 2.0 5.0 0.00 0.04 0.04 94 1006.9
20260506235029 56 142 2.0 5.0 0.00 0.04 0.04 94 1007.0
20260506234547 56 157 2.0 8.0 0.00 0.04 0.04 94 1006.8
20260506234027 56 190 1.0 8.0 0.00 0.04 0.04 94 1006.8
20260506233529 56 183 3.0 8.0 0.01 0.04 0.04 94 1006.7
20260506233036 56 172 2.0 6.0 0.01 0.04 0.04 94 1006.7
20260506232526 57 154 2.0 7.0 0.01 0.04 0.04 93 1006.7
20260506232034 57 208 2.0 7.0 0.01 0.04 0.04 93 1006.7
20260506231537 57 148 3.0 7.0 0.01 0.04 0.04 93 1006.8
20260506231029 57 203 3.0 7.0 0.01 0.04 0.04 93 1006.8
20260506230528 57 160 4.0 7.0 0.01 0.04 0.04 93 1006.8
20260506230045 57 181 4.0 7.0 0.01 0.04 0.04 93 1006.8
20260506225531 57 188 1.0 5.0 0.01 0.04 0.04 94 1006.9
20260506225029 57 167 2.0 6.0 0.01 0.04 0.04 93 1006.9
20260506224549 57 142 2.0 6.0 0.01 0.04 0.04 93 1006.9
20260506224027 57 182 2.0 7.0 0.02 0.04 0.04 93 1006.8
20260506223527 57 148 3.0 7.0 0.01 0.03 0.03 93 1006.7
20260506223042 57 128 3.0 6.0 0.01 0.03 0.03 93 1006.7
20260506222528 58 168 2.0 5.0 0.01 0.03 0.03 93 1006.7
20260506222029 58 195 3.0 6.0 0.01 0.03 0.03 93 1006.7
20260506221542 58 160 2.0 8.0 0.01 0.03 0.03 93 1006.8
20260506221029 58 136 2.0 8.0 0.01 0.03 0.03 93 1006.9
20260506220528 58 146 2.0 9.0 0.01 0.03 0.03 93 1007.1
20260506220045 58 179 2.0 9.0 0.01 0.03 0.03 92 1007.1
20260506215527 58 131 2.0 6.0 0.01 0.03 0.03 92 1007.3
20260506215028 58 172 3.0 7.0 0.01 0.03 0.03 92 1007.1
20260506214536 58 188 3.0 7.0 0.01 0.03 0.03 91 1007.2
20260506214033 58 186 3.0 9.0 0.00 0.02 0.02 91 1007.2
20260506213528 59 112 3.0 9.0 0.00 0.02 0.02 90 1007.1
20260506213035 59 193 3.0 8.0 0.00 0.02 0.02 90 1007.3
20260506212529 59 182 4.0 8.0 0.00 0.02 0.02 89 1007.3
20260506212027 59 153 3.0 10.0 0.00 0.02 0.02 89 1007.4
20260506211550 59 163 3.0 10.0 0.00 0.02 0.02 89 1007.4
20260506211027 59 205 3.0 8.0 0.00 0.02 0.02 89 1007.5
20260506210527 59 160 3.0 11.0 0.00 0.02 0.02 89 1007.5
20260506210039 59 169 4.0 11.0 0.00 0.02 0.02 89 1007.6
20260506205527 59 177 5.0 11.0 0.00 0.02 0.02 89 1007.5
20260506205027 59 84 3.0 7.0 0.00 0.02 0.02 89 1007.6
20260506204539 59 153 3.0 7.0 0.00 0.02 0.02 89 1007.6
20260506204028 59 188 4.0 9.0 0.01 0.02 0.02 89 1007.7
20260506203528 59 176 3.0 9.0 0.01 0.02 0.02 89 1007.7
20260506203047 59 203 3.0 7.0 0.01 0.02 0.02 89 1007.7
20260506202528 59 168 4.0 7.0 0.01 0.02 0.02 89 1007.8
20260506202029 59 174 2.0 9.0 0.02 0.02 0.02 89 1007.8
20260506201537 59 152 3.0 9.0 0.02 0.02 0.02 88 1007.9
20260506201028 59 159 3.0 10.0 0.02 0.02 0.02 88 1007.8
20260506200531 59 129 4.0 10.0 0.02 0.02 0.02 88 1007.7
20260506200042 59 160 4.0 9.0 0.02 0.02 0.02 88 1007.9
20260506195531 60 164 4.0 10.0 0.02 0.02 0.02 87 1007.9
20260506195029 60 90 5.0 10.0 0.02 0.02 0.02 87 1007.7
20260506194543 60 172 3.0 9.0 0.02 0.02 0.02 86 1007.7
20260506194029 61 148 3.0 9.0 0.01 0.01 0.01 85 1007.8
20260506193528 61 205 3.0 8.0 0.01 0.01 0.01 84 1007.9
20260506193035 61 115 2.0 6.0 0.01 0.01 0.01 83 1007.9
20260506192527 61 213 3.0 6.0 0.00 0.00 0.00 82 1007.9
20260506192027 62 177 2.0 8.0 0.00 0.00 0.00 81 1008.0
20260506191543 62 153 1.0 8.0 0.00 0.00 0.00 81 1008.0
20260506191028 62 188 3.0 6.0 0.00 0.00 0.00 80 1008.0
20260506190529 63 203 3.0 6.0 0.00 0.00 0.00 78 1008.0
20260506190043 63 124 3.0 8.0 0.00 0.00 0.00 77 1008.2
20260506185527 64 205 2.0 8.0 0.00 0.00 0.00 75 1008.2
20260506185030 64 165 5.0 9.0 0.00 0.00 0.00 74 1008.2
20260506184541 65 129 4.0 9.0 0.00 0.00 0.00 72 1008.2
20260506184028 65 105 3.0 5.0 0.00 0.00 0.00 72 1008.1
20260506183532 66 205 3.0 6.0 0.00 0.00 0.00 71 1008.1
20260506183041 66 192 2.0 8.0 0.00 0.00 0.00 71 1008.3
20260506182528 66 200 4.0 8.0 0.00 0.00 0.00 70 1008.4
20260506182029 66 211 5.0 10.0 0.00 0.00 0.00 70 1008.4
20260506181547 66 240 3.0 10.0 0.00 0.00 0.00 70 1008.5
20260506181029 67 154 4.0 11.0 0.00 0.00 0.00 69 1008.3
20260506180529 67 131 2.0 11.0 0.00 0.00 0.00 68 1008.3
20260506180044 67 153 5.0 11.0 0.00 0.00 0.00 67 1008.5
20260506175530 67 217 4.0 9.0 0.00 0.00 0.00 67 1008.5
20260506175025 68 184 4.0 9.0 0.00 0.00 0.00 67 1008.6
20260506174542 68 210 4.0 9.0 0.00 0.00 0.00 67 1008.6
20260506174025 68 127 4.0 9.0 0.00 0.00 0.00 66 1008.6
20260506173529 68 141 4.0 9.0 0.00 0.00 0.00 66 1008.7
20260506173054 68 134 4.0 8.0 0.00 0.00 0.00 66 1008.8
20260506172529 69 135 4.0 8.0 0.00 0.00 0.00 65 1008.9
20260506172028 69 146 3.0 12.0 0.00 0.00 0.00 65 1008.9
20260506171537 69 172 5.0 12.0 0.00 0.00 0.00 64 1008.8
20260506171029 69 195 6.0 12.0 0.00 0.00 0.00 63 1008.9
20260506170529 70 165 6.0 14.0 0.00 0.00 0.00 63 1008.8
20260506170037 70 165 7.0 14.0 0.00 0.00 0.00 62 1008.7
20260506165528 70 151 6.0 12.0 0.00 0.00 0.00 62 1008.6
20260506165029 70 188 6.0 12.0 0.00 0.00 0.00 63 1008.9
20260506164536 70 163 5.0 12.0 0.00 0.00 0.00 64 1008.9
20260506164030 69 179 4.0 18.0 0.00 0.00 0.00 64 1009.1
20260506163527 69 207 7.0 18.0 0.00 0.00 0.00 63 1009.3
20260506163042 70 185 6.0 13.0 0.00 0.00 0.00 63 1009.3
20260506162525 70 203 4.0 13.0 0.00 0.00 0.00 63 1009.3
20260506162030 70 168 7.0 13.0 0.00 0.00 0.00 63 1009.4
20260506161543 70 25 3.0 13.0 0.00 0.00 0.00 63 1009.5
20260506161031 70 204 5.0 14.0 0.00 0.00 0.00 63 1009.5
20260506160529 70 207 5.0 14.0 0.00 0.00 0.00 63 1009.7
20260506160041 70 154 6.0 14.0 0.00 0.00 0.00 62 1009.8
20260506155529 70 165 5.0 13.0 0.00 0.00 0.00 63 1009.7
20260506155028 70 156 6.0 13.0 0.00 0.00 0.00 62 1009.8
20260506154538 71 167 4.0 11.0 0.00 0.00 0.00 62 1009.8
20260506154028 71 223 4.0 12.0 0.00 0.00 0.00 62 1009.8
20260506153528 71 188 6.0 12.0 0.00 0.00 0.00 62 1009.8
20260506153035 70 201 4.0 10.0 0.00 0.00 0.00 63 1009.9
20260506152527 70 138 5.0 11.0 0.00 0.00 0.00 63 1010.0
20260506152028 70 220 2.0 11.0 0.00 0.00 0.00 65 1010.0
20260506151545 70 204 6.0 12.0 0.00 0.00 0.00 64 1010.0
20260506151028 69 228 4.0 12.0 0.00 0.00 0.00 65 1010.0
20260506150529 69 151 3.0 11.0 0.00 0.00 0.00 65 1010.1
20260506150049 69 168 3.0 7.0 0.00 0.00 0.00 66 1010.1
20260506145527 69 156 4.0 11.0 0.00 0.00 0.00 66 1010.2
20260506145028 68 187 4.0 11.0 0.00 0.00 0.00 66 1010.1
20260506144543 69 193 3.0 12.0 0.00 0.00 0.00 67 1010.2
20260506144031 68 205 5.0 12.0 0.00 0.00 0.00 66 1010.1
20260506143528 69 129 3.0 9.0 0.00 0.00 0.00 67 1010.0
20260506143036 68 138 3.0 11.0 0.00 0.00 0.00 67 1010.0
20260506142528 68 186 5.0 17.0 0.00 0.00 0.00 67 1009.9
20260506142027 68 175 7.0 17.0 0.00 0.00 0.00 66 1009.8
20260506141537 68 192 6.0 13.0 0.00 0.00 0.00 65 1009.9
20260506141032 68 201 6.0 16.0 0.00 0.00 0.00 65 1009.9
20260506140528 68 190 6.0 16.0 0.00 0.00 0.00 65 1010.0
20260506140043 69 180 6.0 14.0 0.00 0.00 0.00 65 1009.9
20260506135526 68 211 1.0 8.0 0.00 0.00 0.00 68 1009.9
20260506135029 68 143 5.0 10.0 0.00 0.00 0.00 67 1009.9
20260506134547 68 217 3.0 10.0 0.00 0.00 0.00 67 1009.9
20260506134029 67 165 5.0 10.0 0.00 0.00 0.00 68 1009.9
20260506133529 67 150 4.0 13.0 0.00 0.00 0.00 70 1010.1
20260506133038 66 148 4.0 13.0 0.00 0.00 0.00 70 1010.4
20260506132528 66 166 5.0 10.0 0.00 0.00 0.00 70 1010.6
20260506132030 67 121 3.0 11.0 0.00 0.00 0.00 69 1010.6
20260506131547 67 153 5.0 11.0 0.00 0.00 0.00 71 1010.5
20260506131030 66 150 4.0 9.0 0.00 0.00 0.00 72 1010.7
20260506130532 65 159 3.0 7.0 0.00 0.00 0.00 73 1010.6
20260506130052 65 155 3.0 9.0 0.00 0.00 0.00 73 1010.5
20260506125527 65 177 4.0 9.0 0.00 0.00 0.00 72 1010.6
20260506125028 65 176 3.0 7.0 0.00 0.00 0.00 74 1010.6
20260506124535 64 210 3.0 8.0 0.00 0.00 0.00 76 1010.6
20260506124028 64 129 3.0 8.0 0.00 0.00 0.00 76 1010.7
20260506123531 63 210 3.0 8.0 0.00 0.00 0.00 76 1010.6
20260506123043 63 150 3.0 8.0 0.00 0.00 0.00 77 1010.6
20260506122531 63 146 4.0 8.0 0.00 0.00 0.00 77 1010.7
20260506122028 63 159 4.0 8.0 0.00 0.00 0.00 78 1010.6
20260506121539 63 199 3.0 7.0 0.00 0.00 0.00 78 1010.6
20260506121028 62 161 3.0 7.0 0.00 0.00 0.00 79 1010.4
20260506120532 62 125 2.0 5.0 0.00 0.00 0.00 80 1010.4
20260506120036 61 179 2.0 5.0 0.00 0.00 0.00 81 1010.6
20260506115529 61 108 2.0 5.0 0.00 0.00 0.00 82 1010.8
20260506115028 60 163 1.0 6.0 0.00 0.00 0.00 84 1010.8
20260506114535 59 161 2.0 6.0 0.00 0.00 0.00 84 1011.0
20260506114031 59 161 2.0 5.0 0.00 0.00 0.00 84 1011.1
20260506113527 59 150 1.0 4.0 0.00 0.00 0.00 84 1011.0
20260506113036 59 155 2.0 4.0 0.00 0.00 0.00 84 1011.1
20260506112529 59 153 2.0 5.0 0.00 0.00 0.00 84 1011.1
20260506112028 59 0 2.0 5.0 0.00 0.00 0.00 84 1011.0
20260506111535 59 131 2.0 5.0 0.00 0.00 0.00 84 1011.1
20260506111030 58 148 2.0 5.0 0.00 0.00 0.00 86 1011.0
20260506110532 58 167 1.0 4.0 0.00 0.00 0.00 87 1011.0
20260506110038 57 136 2.0 4.0 0.00 0.00 0.00 87 1011.0